Weather History for K1A6 - November, 2012

Change the Weather History Date:

Monday, November 26, 2012

  Actual Average (KLOZ) Record (KLOZ)
Temperature  
Mean Temperature 42 °F 44 °F  
Max Temperature 59 °F 54 °F 71 °F (1990)
Min Temperature 26 °F 34 °F 15 °F (1991)
Degree Days  
Heating Degree Days 22 21  
Month to date heating degree days 438  
Since 1 July heating degree days 744  
Cooling Degree Days 0 0  
Month to date cooling degree days 0  
Moisture  
Dew Point 33 °F    
Average Humidity 74    
Maximum Humidity 100    
Minimum Humidity 36    
Precipitation  
Precipitation 0.00 in 0.14 in 1.30 in (2007)
Month to date precipitation 3.25  
Sea Level Pressure  
Sea Level Pressure 30.15 in    
Wind  
Wind Speed 0 mph (SSE)    
Max Wind Speed 9 mph    
Max Gust Speed 16 mph    
Visibility 9 miles    
Events Rain    
T = Trace of Precipitation, MM = Missing Value Source: NWS Daily Summary

Daily Weather History Graph

Daily Weather History Graph

Search for Another Location

Airport or City:

Trip Planner

Search our weather history database for the weather conditions in past years. The results will help you decide how hot, cold, wet, or windy it might be!

Date:

Astronomy

Nov. 26, 2012 Rise Set
Actual Time 6:24 AM CST 4:20 PM CST
Civil Twilight 5:56 AM CST 4:48 PM CST
Nautical Twilight 5:24 AM CST 5:20 PM CST
Astronomical Twilight 4:53 AM CST 5:51 PM CST
Moon 3:10 PM CST (11/26) 4:35 AM CST (11/26)
Length of Visible Light 10h 52m
Length of Day
9h 56m
Waxing Gibbous, 97% of the Moon is Illuminated
Nov 26
Waxing Gibbous
Nov 28
Full
Dec 6
Last Quarter
Dec 13
New
Dec 19
First Quarter

Hourly Weather History & Observations

Time (CST) Temp. Windchill Dew Point Humidity Pressure Visibility Wind Dir Wind Speed Gust Speed Precip Events Conditions
12:15 AM 28.4 °F - 26.6 °F 93% 30.10 in 10.0 mi Calm Calm - N/A   Clear
12:35 AM 28.4 °F - 26.6 °F 93% 30.10 in 10.0 mi Calm Calm - N/A   Clear
12:55 AM 28.4 °F - 26.6 °F 93% 30.11 in 10.0 mi Calm Calm - N/A   Clear
1:15 AM 26.6 °F - 24.8 °F 93% 30.12 in 10.0 mi Calm Calm - N/A   Clear
1:35 AM 28.4 °F - 26.6 °F 93% 30.13 in 7.0 mi Calm Calm - N/A   Clear
1:55 AM 26.6 °F - 24.8 °F 93% 30.14 in 7.0 mi Calm Calm - N/A   Clear
2:15 AM 28.4 °F - 26.6 °F 93% 30.14 in 7.0 mi Calm Calm - N/A   Clear
2:35 AM 28.4 °F - 24.8 °F 86% 30.15 in 7.0 mi Calm Calm - N/A   Clear
2:55 AM 26.6 °F - 24.8 °F 93% 30.15 in 7.0 mi Calm Calm - N/A   Clear
3:15 AM 26.6 °F - 26.6 °F 100% 30.15 in 5.0 mi Calm Calm - N/A   Clear
3:35 AM 26.6 °F - 26.6 °F 100% 30.15 in 7.0 mi Calm Calm - N/A   Scattered Clouds
3:55 AM 26.6 °F - 24.8 °F 93% 30.16 in 7.0 mi Calm Calm - N/A   Overcast
4:15 AM 28.4 °F - 26.6 °F 93% 30.16 in 7.0 mi Calm Calm - N/A   Overcast
4:35 AM 28.4 °F - 26.6 °F 93% 30.17 in 10.0 mi Calm Calm - N/A   Mostly Cloudy
4:55 AM 28.4 °F - 26.6 °F 93% 30.17 in 10.0 mi Calm Calm - N/A   Scattered Clouds
5:15 AM 28.4 °F - 26.6 °F 93% 30.17 in 10.0 mi Calm Calm - N/A   Mostly Cloudy
5:35 AM 28.4 °F - 26.6 °F 93% 30.17 in 10.0 mi Calm Calm - N/A   Overcast
6:15 AM 28.4 °F - 26.6 °F 93% 30.18 in 10.0 mi Calm Calm - N/A   Scattered Clouds
6:35 AM 28.4 °F - 26.6 °F 93% 30.18 in 7.0 mi Calm Calm - N/A   Clear
6:55 AM 28.4 °F - 26.6 °F 93% 30.19 in 10.0 mi Calm Calm - N/A   Scattered Clouds
7:15 AM 30.2 °F - 28.4 °F 93% 30.19 in 10.0 mi Calm Calm - N/A   Overcast
7:35 AM 30.2 °F - 28.4 °F 93% 30.20 in 10.0 mi Calm Calm - N/A   Overcast
7:55 AM 33.8 °F - 30.2 °F 87% 30.20 in 7.0 mi Calm Calm - N/A   Overcast
8:15 AM 33.8 °F - 30.2 °F 87% 30.20 in 10.0 mi Calm Calm - N/A   Overcast
8:35 AM 35.6 °F - 30.2 °F 81% 30.21 in 10.0 mi Calm Calm - N/A   Overcast
8:55 AM 37.4 °F - 30.2 °F 75% 30.20 in 10.0 mi Calm Calm - N/A   Overcast
9:15 AM 39.2 °F - 32.0 °F 75% 30.21 in 10.0 mi Calm Calm - N/A   Overcast
9:35 AM 41.0 °F - 32.0 °F 70% 30.21 in 10.0 mi Calm Calm - N/A   Overcast
9:55 AM 42.8 °F - 33.8 °F 70% 30.20 in 10.0 mi Calm Calm - N/A   Overcast
10:15 AM 48.2 °F - 33.8 °F 58% 30.19 in 10.0 mi Calm Calm - N/A   Scattered Clouds
10:35 AM 51.8 °F - 32.0 °F 47% 30.18 in 10.0 mi Calm Calm - N/A   Scattered Clouds
10:55 AM 55.4 °F - 32.0 °F 41% 30.17 in 10.0 mi Calm Calm - N/A   Mostly Cloudy
11:15 AM 55.4 °F - 30.2 °F 38% 30.16 in 10.0 mi South 6.9 mph - N/A   Overcast
11:35 AM 55.4 °F - 32.0 °F 41% 30.16 in 10.0 mi South 5.8 mph - N/A   Overcast
11:55 AM 55.4 °F - 32.0 °F 41% 30.15 in 10.0 mi South 9.2 mph 16.1 mph N/A   Overcast
12:15 PM 55.4 °F - 30.2 °F 38% 30.14 in 10.0 mi South 4.6 mph - N/A   Overcast
12:35 PM 55.4 °F - 32.0 °F 41% 30.14 in 10.0 mi SSE 3.5 mph - N/A   Overcast
12:55 PM 57.2 °F - 32.0 °F 38% 30.13 in 10.0 mi Calm Calm - N/A   Overcast
1:15 PM 57.2 °F - 32.0 °F 38% 30.12 in 10.0 mi South 4.6 mph - N/A   Overcast
1:35 PM 57.2 °F - 33.8 °F 41% 30.11 in 10.0 mi SSW 3.5 mph - N/A   Overcast
1:55 PM 57.2 °F - 33.8 °F 41% 30.10 in 10.0 mi Calm Calm - N/A   Overcast
2:15 PM 57.2 °F - 33.8 °F 41% 30.10 in 10.0 mi Calm Calm - N/A   Overcast
2:35 PM 57.2 °F - 33.8 °F 41% 30.10 in 10.0 mi Calm Calm - N/A   Overcast
2:55 PM 59.0 °F - 32.0 °F 36% 30.11 in 10.0 mi Calm Calm - N/A   Overcast
3:15 PM 57.2 °F - 33.8 °F 41% 30.10 in 10.0 mi Calm Calm - N/A   Overcast
3:35 PM 57.2 °F - 33.8 °F 41% 30.11 in 10.0 mi East 3.5 mph - N/A   Overcast
3:55 PM 57.2 °F - 33.8 °F 41% 30.10 in 10.0 mi Calm Calm - N/A   Overcast
4:15 PM 55.4 °F - 35.6 °F 47% 30.10 in 10.0 mi Calm Calm - N/A   Overcast
4:35 PM 53.6 °F - 35.6 °F 51% 30.10 in 10.0 mi Calm Calm - N/A   Overcast
4:55 PM 53.6 °F - 35.6 °F 51% 30.10 in 10.0 mi Calm Calm - N/A   Overcast
5:15 PM 53.6 °F - 39.2 °F 58% 30.10 in 10.0 mi Calm Calm - N/A   Overcast
5:35 PM 51.8 °F - 39.2 °F 62% 30.11 in 10.0 mi Calm Calm - N/A   Overcast
5:55 PM 51.8 °F - 39.2 °F 62% 30.11 in 10.0 mi Calm Calm - N/A   Overcast
6:15 PM 51.8 °F - 39.2 °F 62% 30.11 in 10.0 mi Calm Calm - N/A   Overcast
6:35 PM 51.8 °F - 39.2 °F 62% 30.12 in 10.0 mi Calm Calm - N/A Rain Light Rain
6:55 PM 50.0 °F - 42.8 °F 76% 30.60 in 10.0 mi Calm Calm - N/A Rain Light Rain
7:15 PM 48.2 °F - 44.6 °F 87% 30.13 in 10.0 mi Calm Calm - N/A Rain Light Rain
7:35 PM 46.4 °F - 44.6 °F 93% 30.13 in 10.0 mi Calm Calm - N/A   Overcast
7:55 PM 46.4 °F - 46.4 °F 100% 30.13 in 10.0 mi Calm Calm - N/A Rain Rain
8:15 PM - - - N/A% 30.13 in 10.0 mi Calm Calm - N/A Rain Light Rain
8:35 PM 46.4 °F - 46.4 °F 100% 30.14 in 10.0 mi Calm Calm - N/A Rain Light Rain
8:55 PM 46.4 °F - 46.4 °F 100% 30.15 in 10.0 mi Calm Calm - N/A   Overcast
9:15 PM 46.4 °F - 46.4 °F 100% 30.16 in 7.0 mi Calm Calm - N/A Rain Light Rain
9:35 PM 46.4 °F - 46.4 °F 100% 30.16 in 7.0 mi Calm Calm - N/A Rain Light Rain
9:55 PM 46.4 °F 44.3 °F - N/A% 30.17 in 7.0 mi NNE 4.6 mph - N/A Rain Light Rain
10:15 PM 46.4 °F - - N/A% 30.16 in 7.0 mi Calm Calm - N/A Rain Light Rain
10:35 PM 46.4 °F - 46.4 °F 100% 30.16 in 7.0 mi Calm Calm - N/A Rain Light Rain
10:55 PM 46.4 °F - 46.4 °F 100% 30.16 in 7.0 mi Calm Calm - N/A Rain Light Rain
11:15 PM 46.4 °F - 46.4 °F 100% 30.14 in 7.0 mi Calm Calm - N/A Rain Light Rain
11:35 PM 46.4 °F - 32.0 °F 57% 30.15 in 5.0 mi Calm Calm - N/A Rain Light Rain
11:55 PM 46.4 °F - 46.4 °F 100% 30.13 in 4.0 mi Calm Calm - N/A Rain Light Rain